Saint Petersburg, FL

10:29 PM EDT on September 30, 2016 (GMT -0400)
Whitted

Weather History for KSPG - October, 2011

Change the Weather History Date:

Monday, October 17, 2011

  Actual Average Record
Temperature  
Mean Temperature 78 °F -  
Max Temperature 80 °F 83 °F 90 °F (1985)
Min Temperature 75 °F 69 °F 55 °F (1954)
Cooling Degree Days 12    
Growing Degree Days 28 (Base 50)    
Moisture  
Dew Point 72 °F    
Average Humidity 83    
Maximum Humidity 89    
Minimum Humidity 76    
Precipitation  
Precipitation 0.00 in - - ()
Sea Level Pressure  
Sea Level Pressure 29.92 in    
Wind  
Wind Speed 12 mph (ESE)    
Max Wind Speed 16 mph    
Max Gust Speed -    
Visibility 10 miles    
Events      
Averages and records for this station are not official NWS values.
T = Trace of Precipitation, MM = Missing Value Source: NWS Daily Summary

Daily Weather History Graph

Daily Weather History Graph

Search for Another Location

Airport or City:

Trip Planner

Search our weather history database for the weather conditions in past years. The results will help you decide how hot, cold, wet, or windy it might be!

Date:

Astronomy

Oct. 17, 2011 Rise Set
Actual Time 7:31 AM EDT 6:59 PM EDT
Civil Twilight 7:08 AM EDT 7:23 PM EDT
Nautical Twilight 6:40 AM EDT 7:50 PM EDT
Astronomical Twilight 6:13 AM EDT 8:17 PM EDT
Moon 10:59 PM EDT (10/17) 12:16 PM EDT (10/17)
Length of Visible Light 12h 15m
Length of Day
11h 27m
Waning Gibbous, 74% of the Moon is Illuminated
Oct 17
Waning Gibbous
Oct 19
Last Quarter
Oct 26
New
Nov 2
First Quarter
Nov 10
Full

Hourly Weather History & Observations

Time (EDT) Temp. Heat Index Dew Point Humidity Pressure Visibility Wind Dir Wind Speed Gust Speed Precip Events Conditions
12:53 AM 75.9 °F - 70.0 °F 82% 29.99 in 10.0 mi East 11.5 mph - N/A   Clear
1:53 AM 75.9 °F - 71.1 °F 85% 29.99 in 10.0 mi East 12.7 mph - N/A   Clear
2:53 AM 75.0 °F - 71.1 °F 87% 29.96 in 10.0 mi ENE 11.5 mph - N/A   Clear
3:53 AM 75.0 °F - 71.1 °F 87% 29.95 in 10.0 mi ENE 11.5 mph - N/A   Clear
4:27 AM 75.2 °F - 71.6 °F 89% 29.94 in 10.0 mi East 11.5 mph - N/A   Mostly Cloudy
4:50 AM 75.2 °F - 71.6 °F 89% 29.94 in 10.0 mi East 11.5 mph - N/A   Scattered Clouds
4:53 AM 75.0 °F - 71.1 °F 87% 29.94 in 10.0 mi East 11.5 mph - N/A   Partly Cloudy
6:53 AM 75.0 °F - 71.1 °F 87% 29.95 in 10.0 mi East 11.5 mph - N/A   Clear
7:53 AM 75.0 °F - 71.1 °F 87% 29.96 in 10.0 mi East 11.5 mph - N/A   Clear
8:53 AM 75.0 °F - 71.1 °F 87% 29.98 in 10.0 mi East 10.4 mph - N/A   Clear
10:53 AM 75.9 °F - 72.0 °F 87% 29.98 in 10.0 mi ENE 12.7 mph - N/A   Clear
11:53 AM 78.1 °F - 72.0 °F 81% 29.96 in 10.0 mi ESE 12.7 mph - N/A   Clear
12:53 PM 79.0 °F - 73.0 °F 82% 29.94 in 10.0 mi East 8.1 mph - N/A   Partly Cloudy
1:53 PM 80.1 °F 83.8 °F 72.0 °F 76% 29.91 in 10.0 mi SE 11.5 mph - N/A   Overcast
2:53 PM 80.1 °F 84.2 °F 73.0 °F 79% 29.87 in 10.0 mi SE 10.4 mph - N/A   Clear
3:53 PM 80.1 °F 83.8 °F 72.0 °F 76% 29.85 in 10.0 mi SE 16.1 mph - N/A   Partly Cloudy
4:53 PM 80.1 °F 83.8 °F 72.0 °F 76% 29.85 in 10.0 mi ESE 13.8 mph - N/A   Clear
5:53 PM 79.0 °F - 72.0 °F 79% 29.86 in 10.0 mi ESE 10.4 mph - N/A   Partly Cloudy
6:53 PM 79.0 °F - 72.0 °F 79% 29.87 in 10.0 mi SE 11.5 mph - N/A   Clear
8:53 PM 77.0 °F - 71.1 °F 82% 29.87 in 10.0 mi SE 9.2 mph - N/A   Overcast
9:53 PM 77.0 °F - 72.0 °F 84% 29.86 in 10.0 mi SE 13.8 mph - N/A   Mostly Cloudy
10:53 PM 77.0 °F - 72.0 °F 84% 29.86 in 10.0 mi SE 16.1 mph - N/A   Overcast
11:53 PM 75.9 °F - 71.1 °F 85% 29.85 in 10.0 mi SE 9.2 mph - N/A   Scattered Clouds